C/2010 G2 ( Hill )

Japanese version
Home page
Updated on February 1, 2012

---------------------------------------------------------------------

* Profile

Discovery Date April 10, 2010
Magnitude 19.2 mag
Discoverer R. E. Hill (Catalina Sky Survey)

* Pictures

* Orbital Elements

Epoch 2011 Aug. 27.0 TT = JDT 2455800.5
T 2011 Sept. 2.05259 TT                                 MPC
q   1.9807689            (2000.0)            P               Q
z  +0.0103909      Peri.  137.42635     +0.14259797     +0.42752689
 +/-0.0000002      Node   246.78090     +0.41765874     +0.79168179
e   0.9794180      Incl.  103.74533     +0.89734442     -0.43641803
From 2557 observations 2010 Apr. 10-2011 Dec. 4, mean residual 0".5.

* Finding Charts

* Magnitudes Graph

        m1 =  7.8 + 5 log d + 10.0 log r  [    ,-367]  (             - 2010 Aug. 31)
        m1 = 19.3 + 5 log d - 10   log r  [-367,-286]  (2010 Aug. 31 - 2010 Nov. 20)
        m1 =  7.8 + 5 log d + 10.0 log r  [-286,-120]  (2010 Nov. 20 - 2011 May   5)
        m1 =  0   + 5 log d + 30   log r  [-120,   0]  (2011 May   5 - 2011 Sept. 2)
        m1 =  4.5 + 5 logΔ + 15.0 log r  [   0,    ]  (2011 Sept. 2 -             )

---------------------------------------------------------------------

The orbital elements are published on M.P.E.C. 2011-X25.
The charts are made with StellaNavigator Ver.8 (AstroArts).
The magnitudes graphs are made with Comet for Windows.

---------------------------------------------------------------------

Copyright(C) Seiichi Yoshida (comet@aerith.net). All rights reserved.